Regional Weather Roundup
Issued by NWS Memphis, TN

Home | Current Version | Previous Version | Text Only | Print | Product List | Glossary On
Versions: 1 2 3 4 5 6 7 8 9 10 11 12 13 14 15 16 17 18 19 20 21 22 23 24 25 26 27 28 29 30 31 32 33 34 35 36 37 38 39 40 41 42 43 44 45 46 47 48 49 50
000
ASUS44 KMEG 040610
RWRMEG
MEMPHIS CWA HOURLY WEATHER ROUNDUP
NATIONAL WEATHER SERVICE MEMPHIS TN
100 AM CDT MON MAY 04 2015

...WEST TENNESSEE...

CITY           SKY/WX    TMP DP  RH WIND       PRES   REMARKS
MEMPHIS INTL   CLEAR     69  51  52 S9        30.07S
6HR MIN TEMP:  66; 6HR MAX TEMP:  79;

NWS MEMPHIS      N/A     66 N/A N/A MISG        N/A
JACKSON        CLEAR     61  51  70 S5        30.08F
6HR MIN TEMP:  58; 6HR MAX TEMP:  76;

LEXINGTON      CLEAR     54  52  94 SE3       30.09F
DYERSBURG      CLEAR     64  43  45 S6        30.07F
6HR MIN TEMP:  64; 6HR MAX TEMP:  77;

PARIS          CLEAR     61  46  59 S6        30.08F


...EASTERN ARKANSAS...

CITY           SKY/WX    TMP DP  RH WIND       PRES   REMARKS
JONESBORO      CLEAR     65  53  65 S7        30.03F
6HR MIN TEMP:  60; 6HR MAX TEMP:  77;

WEST MEMPHIS   CLEAR     64  56  75 S7        30.05S
6HR MIN TEMP:  63; 6HR MAX TEMP:  78;

BATESVILLE     CLEAR     66  55  68 S5        30.03S
6HR MIN TEMP:  66; 6HR MAX TEMP:  79;

NEWPORT        CLEAR     62  56  81 MISG      30.04S
6HR MIN TEMP:  63; 6HR MAX TEMP:  80;

WALNUT RIDGE   CLEAR     66  52  59 S10       30.02S
6HR MIN TEMP:  64; 6HR MAX TEMP:  79;

BLYTHEVILLE    CLEAR     66  51  58 S8        30.05S
6HR MIN TEMP:  66; 6HR MAX TEMP:  79;

SEARCY         CLEAR     59  58  96 SW3       30.05S
6HR MIN TEMP:  59; 6HR MAX TEMP:  79;

STUTTGART      CLEAR     68  55  64 S8        30.06R
6HR MIN TEMP:  68; 6HR MAX TEMP:  81;

PINE BLUFF     CLEAR     63  57  81 S6        30.06R
6HR MIN TEMP:  63; 6HR MAX TEMP:  80;

MONTICELLO     CLEAR     66  56  70 S3        30.07R
6HR MIN TEMP:  66; 6HR MAX TEMP:  80;



...NORTH MISSISSIPPI...

CITY           SKY/WX    TMP DP  RH WIND       PRES   REMARKS
TUPELO         CLEAR     63  53  70 S3        30.12S
6HR MIN TEMP:  63; 6HR MAX TEMP:  77;

OXFORD         LGT RAIN  63  54  72 SE8       30.12S
OLIVE BRANCH   CLEAR     64  52  63 S7        30.09S
TUNICA         CLEAR     63  55  77 S3        30.08S
CLARKSDALE     CLEAR     66  57  72 CALM      30.08S
CORINTH        CLEAR     57  54  88 SE6       30.11S
GREENWOOD      CLEAR     65  54  67 S5        30.10S
6HR MIN TEMP:  64; 6HR MAX TEMP:  78;

COLUMBUS       CLEAR     60  52  74 SE7       30.13S
6HR MIN TEMP:  60; 6HR MAX TEMP:  80;

STARKVILLE     FAIR      55  54  94 CALM      30.14R
GOLDEN TRIANGL MOCLDY    64  52  63 S7        30.13S
6HR MIN TEMP:  64; 6HR MAX TEMP:  75;



...SOUTHEAST MISSOURI...

CITY           SKY/WX    TMP DP  RH WIND       PRES   REMARKS
WEST PLAINS    CLEAR     65  53  65 SW3       30.05R
6HR MIN TEMP:  65; 6HR MAX TEMP:  77;

POPLAR BLUFF   CLEAR     63  52  67 CALM      30.03R
6HR MIN TEMP:  63; 6HR MAX TEMP:  77;

CAPE GIRARDEAU CLEAR     67  50  54 S12       30.03R
6HR MIN TEMP:  67; 6HR MAX TEMP:  75;



...NORTHWEST ALABAMA...

CITY           SKY/WX    TMP DP  RH WIND       PRES   REMARKS
MUSCLE SHOALS  CLEAR     57  51  80 SE3       30.15S
6HR MIN TEMP:  57; 6HR MAX TEMP:  76;



...MIDDLE TENNESSEE...

CITY           SKY/WX    TMP DP  RH WIND       PRES   REMARKS
NASHVILLE      CLEAR     58  51  78 S5        30.13S
6HR MIN TEMP:  58; 6HR MAX TEMP:  76;

CLARKSVILLE    CLEAR     58  51  78 SE3       30.09F
6HR MIN TEMP:  58; 6HR MAX TEMP:  76;

COLUMBIA       CLEAR     55  52  88 CALM      30.12F


...WESTERN KENTUCKY...

CITY           SKY/WX    TMP DP  RH WIND       PRES   REMARKS
PADUCAH        CLEAR     67  48  50 S7        30.05R
6HR MIN TEMP:  65; 6HR MAX TEMP:  76;

FORT CAMPBELL  CLEAR     63  49  61 S5        30.09S
6HR MIN TEMP:  63; 6HR MAX TEMP:  74;



...CENTRAL ARKANSAS...

CITY           SKY/WX    TMP DP  RH WIND       PRES   REMARKS
LITTLE ROCK    CLEAR     65  56  72 S7        30.05R
6HR MIN TEMP:  65; 6HR MAX TEMP:  80;



SKY/WX REPORTED AS FAIR MEANS FEW OR NO CLOUDS BELOW
12 THOUSAND FEET.



USA.gov is the U.S. government's official web portal to all federal, state and local government web resources and services.